EW8311 Weather Reports


time (UTC)temp
C
wind
direction
speed
KPH
gust
KPH
rain 1hr
cm
rain 24hr
cm
rain mn
cm
humidity
%
barometer
mb
20260506020034 19 322 9.7 22.5 0.00 1.07 0.53 35 1005.9
20260506014535 20 332 12.9 25.7 0.00 1.19 0.53 34 1005.7
20260506013034 21 261 12.9 29.0 0.00 1.19 0.53 33 1005.5
20260506011559 21 308 16.1 27.4 0.00 1.19 0.53 31 1005.4
20260506010032 22 269 8.0 17.7 0.00 1.19 0.53 29 1005.2
20260506004537 22 322 8.0 19.3 0.00 1.27 0.53 29 1005.0
20260506003031 22 281 8.0 17.7 0.00 1.27 0.53 28 1005.1
20260506001529 23 257 4.8 17.7 0.00 1.27 0.53 31 1004.9
20260506000045 22 274 6.4 14.5 0.00 1.27 0.53 31 1004.9
20260505234539 22 298 4.8 22.5 0.00 1.35 0.53 31 1004.8
20260505233028 22 311 4.8 14.5 0.00 1.35 0.53 31 1004.8
20260505231533 23 323 6.4 17.7 0.00 1.35 0.53 29 1004.8
20260505230051 22 264 4.8 17.7 0.00 1.35 0.53 30 1004.7
20260505224538 22 103 4.8 14.5 0.00 1.35 0.53 29 1005.0
20260505223028 22 310 6.4 19.3 0.00 1.35 0.53 32 1005.1
20260505221528 23 302 8.0 16.1 0.00 1.35 0.53 33 1005.2
20260505220027 22 300 16.1 29.0 0.00 1.35 0.53 31 1005.2
20260505214527 23 298 16.1 24.1 0.00 1.35 0.53 32 1005.4
20260505213025 22 307 14.5 32.2 0.00 1.35 0.53 35 1005.4
20260505211527 22 249 9.7 22.5 0.00 1.35 0.53 37 1005.7
20260505210018 22 325 14.5 29.0 0.00 1.35 0.53 37 1005.7
20260505204515 21 316 9.7 27.4 0.00 1.35 0.53 40 1005.6
20260505203014 21 315 11.3 19.3 0.00 1.35 0.53 42 1005.8
20260505201511 20 316 4.8 12.9 0.00 1.35 0.53 52 1006.0
20260505200011 20 295 3.2 16.1 0.00 1.35 0.53 52 1006.1
20260505194509 21 299 9.7 16.1 0.00 1.35 0.53 50 1005.9
20260505193007 21 259 3.2 12.9 0.00 1.35 0.53 54 1006.2
20260505191505 20 314 6.4 12.9 0.00 1.35 0.53 55 1006.4
20260505190004 20 328 6.4 11.3 0.00 1.35 0.53 57 1006.6
20260505184505 20 340 3.2 8.0 0.00 1.35 0.53 59 1006.8
20260505183100 19 324 4.8 11.3 0.00 1.35 0.53 59 1006.8
20260505181559 19 262 1.6 6.4 0.00 1.35 0.53 58 1007.0
20260505180100 19 311 0.0 6.4 0.00 1.35 0.53 59 1007.2
20260505174555 18 316 3.2 14.5 0.00 1.35 0.53 61 1007.2
20260505173111 18 118 0.0 4.8 0.00 1.35 0.53 62 1007.2
20260505171605 17 246 0.0 4.8 0.00 1.35 0.53 65 1007.3
20260505170045 17 326 3.2 6.4 0.00 1.35 0.53 68 1007.1
20260505164543 17 271 1.6 6.4 0.00 1.35 0.53 73 1007.1
20260505163039 16 300 1.6 3.2 0.00 1.35 0.53 77 1007.3
20260505161539 16 326 3.2 6.4 0.00 1.35 0.53 76 1007.3
20260505153033 15 300 0.0 3.2 0.00 1.35 0.53 87 1006.9
20260505151534 15 224 0.0 0.0 0.00 1.35 0.53 89 1006.8
20260505124520 13 118 0.0 1.6 0.05 1.35 0.53 92 1005.9
20260505123017 13 118 0.0 0.0 0.05 1.35 0.53 91 1005.6
20260505121529 13 118 0.0 0.0 0.03 1.32 0.51 91 1005.2
20260505120015 13 118 0.0 1.6 0.03 1.30 0.48 90 1005.1
20260505114515 13 118 0.0 4.8 0.03 1.30 0.48 88 1005.2
20260505113013 13 321 1.6 6.4 0.05 1.30 0.48 88 1005.5
20260505111511 13 321 1.6 6.4 0.08 1.30 0.48 89 1005.1
20260505101504 13 325 3.2 4.8 0.10 1.22 0.41 92 1006.5
20260505100008 13 103 0.0 3.2 0.13 1.22 0.41 91 1006.9
20260505094500 13 103 0.0 1.6 0.15 1.22 0.41 91 1006.3
20260505093058 13 106 0.0 3.2 0.13 1.17 0.36 92 1007.5
20260505091617 13 103 0.0 6.4 0.10 1.12 0.30 92 1007.3
20260505090101 13 113 1.6 8.0 0.13 1.09 0.28 92 1007.7
20260505084552 14 114 1.6 3.2 0.15 1.07 0.25 91 1008.0
20260505083052 14 111 0.0 1.6 0.15 1.04 0.23 91 1008.4
20260505081549 14 113 0.0 3.2 0.15 0.99 0.18 91 1008.6
20260505080051 14 322 0.0 1.6 0.15 0.97 0.15 90 1008.9
20260505074545 14 322 0.0 3.2 0.10 0.91 0.10 89 1009.2
20260505073055 14 318 0.0 3.2 0.13 0.89 0.08 88 1009.0
20260505071545 14 314 0.0 1.6 0.13 0.84 0.03 88 1009.0
20260505070040 14 314 0.0 4.8 0.13 0.81 0.00 88 1008.6
20260505064537 14 328 0.0 3.2 0.15 0.81 0.81 88 1008.5
20260505063046 14 331 1.6 6.4 0.15 0.76 0.76 87 1008.4
20260505061539 14 322 1.6 4.8 0.13 0.71 0.71 88 1008.7
20260505060035 14 119 0.0 3.2 0.10 0.69 0.69 88 1008.5
20260505054543 15 119 0.0 1.6 0.10 0.66 0.66 88 1008.2
20260505053034 15 119 0.0 1.6 0.08 0.61 0.61 86 1008.6
20260505051539 15 332 0.0 0.0 0.05 0.58 0.58 84 1008.4
20260505041542 15 300 0.0 3.2 0.00 0.53 0.53 77 1008.3
20260505040026 15 310 3.2 6.4 0.05 0.53 0.53 74 1008.1
20260505034524 15 332 3.2 11.3 0.10 0.53 0.53 74 1007.7
20260505033025 14 314 0.0 9.7 0.13 0.53 0.53 80 1007.3
20260505031530 13 103 0.0 6.4 0.18 0.53 0.53 80 1007.7
20260505030023 13 307 1.6 8.0 0.15 0.46 0.46 76 1008.5
20260505024521 13 353 3.2 9.7 0.18 0.43 0.43 78 1008.3
20260505023019 13 320 1.6 12.9 0.18 0.41 0.41 79 1008.5
20260505021517 14 304 0.0 11.3 0.15 0.36 0.36 74 1008.4